Overview Statistics Trail Chart Weather Telemetry Raw packets
 

This is the latest recevied weather packets stored in our database for station/object N9BLE. If no packets are shown the sender has not sent any weather packets the latest 10 day(s).

<< 8 9 10 11 12 13 14 >>
Time Temp. Humidity Pressure Rain* Wind** Luminosity Snow
1777980560 7.78° C 65% 1012.3 hPa 0 mm - 2 W/m² -
1777980258 7.78° C 64% 1012.1 hPa 0 mm - 2 W/m² -
1777979954 8.33° C 65% 1011.5 hPa 0 mm - 2 W/m² -
1777979649 8.33° C 64% 1011.3 hPa 0 mm - 2 W/m² -
1777979346 8.33° C 63% 1011.5 hPa 0 mm - 2 W/m² -
1777979043 8.89° C 65% 1011.9 hPa 0 mm - 1 W/m² -
1777978739 8.89° C 62% 1010.4 hPa 0 mm - 1 W/m² -
1777978436 8.89° C 60% 1010.8 hPa 0 mm - 0 W/m² -
1777978132 8.89° C 60% 1010.3 hPa 0 mm - 0 W/m² -
1777977830 8.89° C 62% 1010.8 hPa 0 mm - 0 W/m² -
1777977525 9.44° C 58% 1010.7 hPa 0 mm - 0 W/m² -
1777977223 9.44° C 56% 1010.9 hPa 0 mm - 0 W/m² -
1777976920 9.44° C 55% 1011.3 hPa 0 mm - 0 W/m² -
1777976618 9.44° C 55% 1011.2 hPa 0 mm - 0 W/m² -
1777976313 9.44° C 55% 1011.6 hPa 0 mm - 0 W/m² -
1777976008 10° C 54% 1011.4 hPa 0 mm - 0 W/m² -
1777975704 9.44° C 54% 1011.2 hPa 0 mm - 0 W/m² -
1777975401 9.44° C 55% 1011 hPa 0 mm - 0 W/m² -
1777975097 9.44° C 56% 1009.8 hPa 0 mm - 0 W/m² -
1777974795 10° C 54% 1009.9 hPa 0 mm - 0 W/m² -
1777974490 10° C 54% 1010 hPa 0 mm - 0 W/m² -
1777974187 10° C 53% 1009.7 hPa 0 mm - 0 W/m² -
1777973883 10° C 53% 1009.8 hPa 0 mm - 0 W/m² -
1777973581 10° C 55% 1010 hPa 0 mm - 0 W/m² -
1777973277 10° C 55% 1010 hPa 0 mm - 0 W/m² -

* Rain latest hour (hover to see other rain measurements)
** Current wind speed in m/s (hover to see current wind gust speed)